DLH67 EDDC-EDDF

Flight info

Callsign DLH67
Flight time 0h 46m
Altitude 36000
Route ABKIS4E ABKIS Z715 NURGO T170 GAPLA/N0407F240 T178 KERAX KERAX5D
Aircraft A321/M-SDE3FGHIRWY/LB1

Departure

Time 2026-04-17 21:07
Airport Dresden Airport (EDDC)

Arrival

Time 2026-04-17 21:53
Airport Frankfurt Main Airport (EDDF)
Time Latitude Longitude Altitude Speed Heading
2026-04-17 20:45 51.12599 13.76610 753 ft 0 kts 221°
2026-04-17 20:58 51.12609 13.76623 753 ft 4 kts 221°
2026-04-17 20:58 51.12629 13.76651 748 ft 4 kts 220°
2026-04-17 20:58 51.12649 13.76678 751 ft 4 kts 240°
2026-04-17 20:59 51.12651 13.76711 749 ft 4 kts 303°
2026-04-17 20:59 51.12638 13.76737 749 ft 4 kts 310°
2026-04-17 20:59 51.12630 13.76752 748 ft 0 kts 310°
2026-04-17 21:03 51.12631 13.76749 749 ft 1 kts 310°
2026-04-17 21:03 51.12648 13.76718 752 ft 9 kts 310°
2026-04-17 21:03 51.12701 13.76620 750 ft 13 kts 311°
2026-04-17 21:03 51.12761 13.76511 753 ft 13 kts 311°
2026-04-17 21:04 51.12783 13.76386 751 ft 13 kts 239°
2026-04-17 21:04 51.12716 13.76290 754 ft 13 kts 220°
2026-04-17 21:04 51.12650 13.76198 755 ft 12 kts 221°
2026-04-17 21:04 51.12588 13.76112 759 ft 12 kts 221°
2026-04-17 21:05 51.12524 13.76023 757 ft 12 kts 221°
2026-04-17 21:05 51.12460 13.75935 762 ft 12 kts 220°
2026-04-17 21:05 51.12394 13.75845 763 ft 13 kts 221°
2026-04-17 21:05 51.12378 13.75722 764 ft 13 kts 290°
2026-04-17 21:06 51.12415 13.75589 764 ft 13 kts 303°
2026-04-17 21:06 51.12486 13.75499 764 ft 13 kts
2026-04-17 21:06 51.12629 13.75690 763 ft 58 kts 41°
2026-04-17 21:06 51.13128 13.76378 751 ft 129 kts 40°
2026-04-17 21:07 51.13942 13.77503 945 ft 164 kts 42°
2026-04-17 21:07 51.14790 13.78684 1744 ft 162 kts 42°
2026-04-17 21:07 51.15665 13.79897 2233 ft 176 kts 42°
2026-04-17 21:07 51.16647 13.81251 2520 ft 198 kts 42°
2026-04-17 21:08 51.17748 13.82775 2774 ft 222 kts 42°
2026-04-17 21:08 51.18986 13.84505 3018 ft 249 kts 42°
2026-04-17 21:08 51.20096 13.86660 3618 ft 257 kts 68°
2026-04-17 21:08 51.20365 13.89484 4342 ft 262 kts 92°
2026-04-17 21:09 51.20040 13.92355 5070 ft 268 kts 114°
2026-04-17 21:09 51.18866 13.94667 5744 ft 274 kts 141°
2026-04-17 21:09 51.17378 13.96610 6451 ft 279 kts 138°
2026-04-17 21:09 51.15950 13.98767 7144 ft 285 kts 134°
2026-04-17 21:10 51.14562 14.01036 7847 ft 289 kts 133°
2026-04-17 21:10 51.13172 14.03377 8560 ft 293 kts 133°
2026-04-17 21:10 51.11764 14.05755 9281 ft 297 kts 133°
2026-04-17 21:10 51.10334 14.08156 10001 ft 301 kts 133°
2026-04-17 21:11 51.08817 14.10405 10623 ft 305 kts 147°
2026-04-17 21:11 51.06818 14.11758 10839 ft 324 kts 172°
2026-04-17 21:11 51.04525 14.11566 10971 ft 340 kts 199°
2026-04-17 21:11 51.02429 14.09725 11101 ft 354 kts 223°
2026-04-17 21:12 51.00620 14.06998 11453 ft 363 kts 226°
2026-04-17 21:12 50.98794 14.04183 12015 ft 368 kts 226°
2026-04-17 21:12 50.96949 14.01339 12599 ft 372 kts 226°
2026-04-17 21:12 50.95076 13.98460 13173 ft 376 kts 226°
2026-04-17 21:13 50.93186 13.95565 13746 ft 380 kts 226°
2026-04-17 21:13 50.91265 13.92633 14276 ft 385 kts 226°
2026-04-17 21:13 50.89323 13.89685 14789 ft 388 kts 226°
2026-04-17 21:13 50.87364 13.86720 15305 ft 391 kts 226°
2026-04-17 21:14 50.85388 13.83735 15861 ft 394 kts 226°
2026-04-17 21:14 50.83396 13.80730 16394 ft 397 kts 226°
2026-04-17 21:14 50.81430 13.77727 16904 ft 399 kts 229°
2026-04-17 21:14 50.79696 13.74317 17400 ft 398 kts 240°
2026-04-17 21:15 50.78374 13.70482 17884 ft 397 kts 250°
2026-04-17 21:15 50.77394 13.66355 18394 ft 398 kts 253°
2026-04-17 21:15 50.76454 13.62287 18827 ft 400 kts 253°
2026-04-17 21:15 50.75485 13.58146 19249 ft 403 kts 253°
2026-04-17 21:16 50.74503 13.53991 19684 ft 405 kts 253°
2026-04-17 21:16 50.73513 13.49819 20123 ft 407 kts 253°
2026-04-17 21:16 50.72516 13.45626 20562 ft 409 kts 253°
2026-04-17 21:16 50.71514 13.41413 20987 ft 411 kts 253°
2026-04-17 21:17 50.70506 13.37178 21436 ft 413 kts 253°
2026-04-17 21:17 50.69490 13.32921 21862 ft 415 kts 253°
2026-04-17 21:17 50.68469 13.28647 22287 ft 418 kts 253°
2026-04-17 21:17 50.67443 13.24352 22712 ft 420 kts 253°
2026-04-17 21:18 50.66411 13.20033 23129 ft 422 kts 253°
2026-04-17 21:18 50.65378 13.15705 23518 ft 424 kts 253°
2026-04-17 21:18 50.64334 13.11352 23937 ft 425 kts 253°
2026-04-17 21:18 50.63285 13.06996 24285 ft 427 kts 252°
2026-04-17 21:19 50.62012 13.02734 24601 ft 432 kts 246°
2026-04-17 21:19 50.60628 12.98532 24913 ft 434 kts 246°
2026-04-17 21:19 50.59229 12.94291 25209 ft 437 kts 246°
2026-04-17 21:19 50.57829 12.90046 25534 ft 439 kts 247°
2026-04-17 21:20 50.56423 12.85776 25845 ft 441 kts 247°
2026-04-17 21:20 50.55006 12.81470 26167 ft 443 kts 247°
2026-04-17 21:20 50.53584 12.77161 26486 ft 445 kts 247°
2026-04-17 21:20 50.52149 12.72824 26798 ft 448 kts 247°
2026-04-17 21:21 50.50710 12.68476 27098 ft 450 kts 247°
2026-04-17 21:21 50.49266 12.64112 27394 ft 452 kts 247°
2026-04-17 21:21 50.47814 12.59727 27658 ft 454 kts 246°
2026-04-17 21:21 50.46353 12.55330 27969 ft 455 kts 246°
2026-04-17 21:22 50.44884 12.50924 28248 ft 456 kts 246°
2026-04-17 21:22 50.43408 12.46509 28502 ft 458 kts 246°
2026-04-17 21:22 50.41928 12.42084 28778 ft 458 kts 246°
2026-04-17 21:22 50.40446 12.37667 29137 ft 458 kts 246°
2026-04-17 21:23 50.38955 12.33238 29454 ft 457 kts 246°
2026-04-17 21:23 50.37472 12.28839 29783 ft 457 kts 246°
2026-04-17 21:23 50.35988 12.24445 30114 ft 456 kts 246°
2026-04-17 21:23 50.34477 12.20069 30419 ft 458 kts 243°
2026-04-17 21:24 50.32715 12.15906 30695 ft 460 kts 240°
2026-04-17 21:24 50.30956 12.11805 30957 ft 458 kts 244°
2026-04-17 21:24 50.29565 12.07381 31217 ft 451 kts 254°
2026-04-17 21:24 50.28716 12.02698 31467 ft 444 kts 264°
2026-04-17 21:25 50.28425 11.97937 31730 ft 437 kts 274°
2026-04-17 21:25 50.28678 11.93236 32008 ft 432 kts 284°
2026-04-17 21:25 50.29422 11.88724 32275 ft 427 kts 292°
2026-04-17 21:25 50.30423 11.84357 32544 ft 426 kts 293°
2026-04-17 21:26 50.31419 11.79992 32815 ft 426 kts 293°
2026-04-17 21:26 50.32411 11.75626 33094 ft 425 kts 293°
2026-04-17 21:26 50.33401 11.71260 33373 ft 425 kts 293°
2026-04-17 21:26 50.34389 11.66907 33648 ft 424 kts 293°
2026-04-17 21:27 50.35377 11.62550 33926 ft 424 kts 293°
2026-04-17 21:27 50.36359 11.58193 34193 ft 423 kts 292°
2026-04-17 21:27 50.37337 11.53848 34467 ft 421 kts 292°
2026-04-17 21:27 50.38296 11.49584 34698 ft 420 kts 292°
2026-04-17 21:28 50.39266 11.45264 34910 ft 420 kts 292°
2026-04-17 21:28 50.40232 11.40947 35125 ft 420 kts 292°
2026-04-17 21:28 50.41198 11.36616 35326 ft 420 kts 292°
2026-04-17 21:28 50.42162 11.32294 35535 ft 420 kts 292°
2026-04-17 21:29 50.43125 11.27959 35741 ft 420 kts 292°
2026-04-17 21:29 50.44084 11.23631 35947 ft 420 kts 292°
2026-04-17 21:29 50.45044 11.19298 36161 ft 421 kts 292°
2026-04-17 21:29 50.45637 11.16619 36188 ft 421 kts 292°
2026-04-17 21:30 50.47557 11.07925 36230 ft 422 kts 292°
2026-04-17 21:30 50.49469 10.99211 36227 ft 422 kts 291°
2026-04-17 21:31 50.51375 10.90477 36228 ft 422 kts 291°
2026-04-17 21:31 50.53261 10.81807 36222 ft 422 kts 291°
2026-04-17 21:32 50.55211 10.73096 36209 ft 422 kts 292°
2026-04-17 21:32 50.57196 10.64399 36218 ft 423 kts 292°
2026-04-17 21:33 50.59177 10.55683 36228 ft 423 kts 292°
2026-04-17 21:33 50.61159 10.46939 36227 ft 423 kts 291°
2026-04-17 21:34 50.63111 10.38200 36227 ft 422 kts 291°
2026-04-17 21:34 50.64039 10.29026 34813 ft 437 kts 269°
2026-04-17 21:35 50.63582 10.24311 33854 ft 446 kts 258°
2026-04-17 21:35 50.62486 10.19699 32845 ft 454 kts 246°
2026-04-17 21:35 50.60971 10.15297 31830 ft 458 kts 244°
2026-04-17 21:35 50.59433 10.10878 30829 ft 461 kts 244°
2026-04-17 21:36 50.57891 10.06439 29754 ft 464 kts 244°
2026-04-17 21:36 50.56841 10.03424 28963 ft 465 kts 244°
2026-04-17 21:36 50.55301 9.99008 27798 ft 467 kts 244°
2026-04-17 21:36 50.53934 9.94392 26653 ft 465 kts 253°
2026-04-17 21:37 50.53031 9.89534 25675 ft 460 kts 256°
2026-04-17 21:37 50.52172 9.84752 24216 ft 449 kts 256°
2026-04-17 21:37 50.51323 9.80074 22430 ft 441 kts 256°
2026-04-17 21:37 50.50491 9.75496 20738 ft 431 kts 255°
2026-04-17 21:38 50.49685 9.71009 19136 ft 421 kts 255°
2026-04-17 21:38 50.48919 9.66621 17464 ft 412 kts 256°
2026-04-17 21:38 50.48182 9.62330 15822 ft 402 kts 256°
2026-04-17 21:38 50.47468 9.58141 14288 ft 393 kts 255°
2026-04-17 21:39 50.46747 9.54029 12740 ft 394 kts 254°
2026-04-17 21:39 50.45982 9.49881 11726 ft 396 kts 253°
2026-04-17 21:39 50.45204 9.45805 11331 ft 381 kts 253°
2026-04-17 21:39 50.44460 9.41951 11206 ft 359 kts 252°
2026-04-17 21:40 50.43755 9.38304 11080 ft 340 kts 252°
2026-04-17 21:40 50.43092 9.34851 10955 ft 322 kts 252°
2026-04-17 21:40 50.42461 9.31563 10833 ft 306 kts 252°
2026-04-17 21:40 50.41864 9.28434 10704 ft 293 kts 252°
2026-04-17 21:41 50.41289 9.25414 10440 ft 286 kts 252°
2026-04-17 21:41 50.40693 9.22516 10320 ft 273 kts 250°
2026-04-17 21:41 50.40065 9.19770 10206 ft 262 kts 249°
2026-04-17 21:41 50.39462 9.17161 10186 ft 247 kts 249°
2026-04-17 21:42 50.38882 9.14665 10190 ft 242 kts 249°
2026-04-17 21:42 50.38309 9.12222 10191 ft 242 kts 249°
2026-04-17 21:42 50.37727 9.09750 10195 ft 241 kts 248°
2026-04-17 21:42 50.37145 9.07284 10192 ft 241 kts 248°
2026-04-17 21:43 50.36564 9.04817 10190 ft 241 kts 248°
2026-04-17 21:43 50.35982 9.02349 10185 ft 243 kts 249°
2026-04-17 21:43 50.35368 8.99755 9861 ft 261 kts 248°
2026-04-17 21:43 50.34723 8.97011 9149 ft 273 kts 249°
2026-04-17 21:44 50.34064 8.94218 8688 ft 273 kts 247°
2026-04-17 21:44 50.33177 8.91600 8274 ft 271 kts 237°
2026-04-17 21:44 50.32375 8.88946 7857 ft 271 kts 251°
2026-04-17 21:44 50.31757 8.86168 7466 ft 270 kts 246°
2026-04-17 21:45 50.30724 8.83764 7084 ft 266 kts 223°
2026-04-17 21:45 50.29169 8.82227 6698 ft 265 kts 199°
2026-04-17 21:45 50.27360 8.81817 6294 ft 265 kts 176°
2026-04-17 21:45 50.25595 8.82611 5892 ft 266 kts 152°
2026-04-17 21:46 50.24115 8.84346 5457 ft 267 kts 137°
2026-04-17 21:46 50.23016 8.86631 5068 ft 267 kts 118°
2026-04-17 21:46 50.21999 8.89041 4656 ft 265 kts 136°
2026-04-17 21:46 50.20424 8.90533 4271 ft 262 kts 160°
2026-04-17 21:47 50.18728 8.91394 4150 ft 251 kts 163°
2026-04-17 21:47 50.17086 8.92160 4036 ft 244 kts 164°
2026-04-17 21:47 50.15447 8.92527 4005 ft 244 kts 187°
2026-04-17 21:47 50.13899 8.91614 3979 ft 234 kts 217°
2026-04-17 21:48 50.12651 8.90062 3971 ft 228 kts 218°
2026-04-17 21:48 50.11490 8.88387 3994 ft 228 kts 232°
2026-04-17 21:48 50.10750 8.86301 4065 ft 215 kts 246°
2026-04-17 21:48 50.10119 8.84226 3950 ft 206 kts 244°
2026-04-17 21:49 50.09593 8.82256 3849 ft 189 kts 249°
2026-04-17 21:49 50.09151 8.80373 3622 ft 182 kts 250°
2026-04-17 21:49 50.08692 8.78539 3314 ft 181 kts 249°
2026-04-17 21:49 50.08256 8.76707 3005 ft 180 kts 250°
2026-04-17 21:50 50.07840 8.74872 2701 ft 179 kts 251°
2026-04-17 21:50 50.07446 8.73071 2452 ft 175 kts 253°
2026-04-17 21:50 50.07175 8.71293 2280 ft 162 kts 258°
2026-04-17 21:50 50.06964 8.69605 1982 ft 156 kts 259°
2026-04-17 21:51 50.06706 8.67978 1700 ft 156 kts 253°
2026-04-17 21:51 50.06354 8.66407 1502 ft 152 kts 250°
2026-04-17 21:51 50.05986 8.64877 1293 ft 151 kts 249°
2026-04-17 21:51 50.05620 8.63359 1063 ft 150 kts 250°
2026-04-17 21:52 50.05259 8.61839 840 ft 149 kts 251°
2026-04-17 21:52 50.04904 8.60330 642 ft 148 kts 250°
2026-04-17 21:52 50.04548 8.58841 451 ft 146 kts 250°
2026-04-17 21:52 50.04208 8.57414 369 ft 129 kts 250°
2026-04-17 21:53 50.03948 8.56328 357 ft 82 kts 250°
2026-04-17 21:53 50.03808 8.55741 358 ft 35 kts 250°
2026-04-17 21:53 50.03812 8.55533 357 ft 15 kts 327°
2026-04-17 21:53 50.03889 8.55488 354 ft 0 kts 340°
2026-04-17 21:54 50.03892 8.55486 349 ft 1 kts 340°
2026-04-17 21:54 50.03893 8.55485 349 ft 0 kts 340°
2026-04-17 21:55 50.03904 8.55481 358 ft 6 kts 349°
2026-04-17 21:55 50.03945 8.55525 352 ft 9 kts 62°
2026-04-17 21:55 50.03970 8.55626 356 ft 11 kts 69°
2026-04-17 21:56 50.03999 8.55745 357 ft 12 kts 69°
2026-04-17 21:56 50.04030 8.55874 357 ft 13 kts 69°
2026-04-17 21:56 50.04063 8.56014 353 ft 14 kts 70°
2026-04-17 21:56 50.04099 8.56162 359 ft 15 kts 69°
2026-04-17 21:57 50.04137 8.56319 354 ft 16 kts 69°
2026-04-17 21:57 50.04175 8.56480 359 ft 16 kts 70°
2026-04-17 21:57 50.04213 8.56644 361 ft 16 kts 69°
2026-04-17 21:57 50.04252 8.56804 362 ft 15 kts 69°
2026-04-17 21:58 50.04291 8.56966 364 ft 17 kts 69°
2026-04-17 21:58 50.04344 8.57188 363 ft 27 kts 70°
2026-04-17 21:58 50.04419 8.57503 364 ft 33 kts 69°
2026-04-17 21:58 50.04497 8.57823 364 ft 25 kts 69°
2026-04-17 21:59 50.04547 8.58006 366 ft 17 kts 48°
2026-04-17 21:59 50.04665 8.57974 363 ft 20 kts 340°
2026-04-17 21:59 50.04780 8.57994 362 ft 17 kts 43°
2026-04-17 21:59 50.04824 8.58148 360 ft 14 kts 70°
2026-04-17 22:00 50.04857 8.58284 360 ft 13 kts 69°
2026-04-17 22:00 50.04887 8.58408 360 ft 12 kts 69°
2026-04-17 22:00 50.04918 8.58535 363 ft 14 kts 70°
2026-04-17 22:00 50.04954 8.58685 361 ft 14 kts 69°
2026-04-17 22:01 50.04970 8.58763 361 ft 6 kts 79°
2026-04-17 22:01 50.04963 8.58777 362 ft 1 kts 161°
2026-04-17 22:01 50.04945 8.58775 362 ft 2 kts 181°
2026-04-17 22:01 50.04933 8.58778 365 ft 4 kts 166°
2026-04-17 22:02 50.04909 8.58791 363 ft 2 kts 161°
2026-04-17 22:02 50.04900 8.58796 366 ft 1 kts 160°
2026-04-17 22:02 50.04898 8.58797 365 ft 0 kts 160°